Change the Weather History Date:

Friday, January 13, 2012

  Actual Average Record
Temperature  
Mean Temperature 22 °F 26 °F  
Max Temperature 39 °F 37 °F 58 °F (1972)
Min Temperature 5 °F 15 °F -18 °F (1963)
Degree Days  
Heating Degree Days 43 39  
Month to date heating degree days 463 516  
Since 1 July heating degree days 2741 2913  
Cooling Degree Days 0 0  
Month to date cooling degree days 0  
Year to date cooling degree days 0  
Moisture  
Dew Point 1 °F    
Average Humidity 42    
Maximum Humidity 63    
Minimum Humidity 20    
Precipitation  
Precipitation 0.00 in 0.02 in 0.26 in (1957)
Month to date precipitation 0.00 0.31  
Year to date precipitation 0.00 0.31  
Sea Level Pressure  
Sea Level Pressure 30.46 in    
Wind  
Wind Speed 1 mph (SSE)    
Max Wind Speed 10 mph    
Max Gust Speed 12 mph    
Visibility 10 miles    
Events      
T = Trace of Precipitation, MM = Missing Value Source: NWS Daily Summary

Daily Weather History Graph

Daily Weather History Graph

Search for Another Location

Airport or City:

Trip Planner

Search our weather history database for the weather conditions in past years. The results will help you decide how hot, cold, wet, or windy it might be!

Date:

Astronomy

Jan. 13, 2012 Rise Set
Actual Time 7:36 AM MST 5:19 PM MST
Civil Twilight 7:07 AM MST 5:48 PM MST
Nautical Twilight 6:34 AM MST 6:21 PM MST
Astronomical Twilight 6:02 AM MST 6:53 PM MST
Moon 10:31 PM MST (1/13) 9:56 AM MST (1/13)
Length of Visible Light 10h 41m
Length of Day
9h 42m
Waning Gibbous, 78% of the Moon is Illuminated
Jan 13
Waning Gibbous
Jan 16
Last Quarter
Jan 23
New
Jan 30
First Quarter
Feb 7
Full

Hourly Weather History & Observations

Time (MST) Temp. Windchill Dew Point Humidity Pressure Visibility Wind Dir Wind Speed Gust Speed Precip Events Conditions
12:53 AM 16.0 °F - -0.0 °F 49% 30.39 in 10.0 mi Calm Calm - N/A   Clear
1:53 AM 12.0 °F - -0.9 °F 56% 30.42 in 10.0 mi Calm Calm - N/A   Clear
2:53 AM 17.1 °F - 1.0 °F 50% 30.40 in 10.0 mi Calm Calm - N/A   Clear
3:53 AM 12.9 °F - -0.9 °F 54% 30.40 in 10.0 mi Calm Calm - N/A   Clear
4:53 AM 9.0 °F - -2.9 °F 59% 30.42 in 10.0 mi Calm Calm - N/A   Clear
5:53 AM 12.0 °F - -0.0 °F 59% 30.46 in 10.0 mi Calm Calm - N/A   Clear
6:53 AM 10.0 °F - -0.0 °F 64% 30.49 in 10.0 mi Calm Calm - N/A   Clear
7:53 AM 10.9 °F 4.7 °F -0.0 °F 61% 30.51 in 10.0 mi WSW 3.5 mph - N/A   Clear
8:53 AM 16.0 °F - 1.9 °F 54% 30.52 in 10.0 mi Calm Calm - N/A   Clear
9:53 AM 25.0 °F 18.1 °F 5.0 °F 43% 30.51 in 10.0 mi SE 5.8 mph - N/A   Clear
10:53 AM 30.0 °F 22.4 °F 3.9 °F 33% 30.50 in 10.0 mi SE 8.1 mph - N/A   Clear
11:53 AM 32.0 °F 26.4 °F 1.9 °F 28% 30.49 in 10.0 mi ESE 5.8 mph - N/A   Clear
12:53 PM 34.0 °F - 1.0 °F 25% 30.46 in 10.0 mi Calm Calm - N/A   Clear
1:53 PM 37.0 °F - 1.9 °F 23% 30.43 in 10.0 mi Calm Calm - N/A   Clear
2:53 PM 39.0 °F - 1.9 °F 21% 30.40 in 10.0 mi Calm Calm - N/A   Clear
3:53 PM 37.0 °F - 1.9 °F 23% 30.42 in 10.0 mi Calm Calm - N/A   Clear
4:53 PM 37.0 °F - 1.0 °F 22% 30.43 in 10.0 mi Calm Calm - N/A   Clear
5:53 PM 30.0 °F 23.2 °F 1.0 °F 29% 30.47 in 10.0 mi North 6.9 mph - N/A   Clear
6:53 PM 27.0 °F - 1.0 °F 33% 30.49 in 10.0 mi Calm Calm - N/A   Clear
7:53 PM 24.8 °F - 1.4 °F 36% 30.36 in 10.0 mi Calm Calm - N/A   Clear
8:53 PM 19.0 °F 13.9 °F -0.0 °F 43% 30.52 in 10.0 mi WSW 3.5 mph - N/A   Clear
9:53 PM 21.0 °F - 1.0 °F 42% 30.48 in 10.0 mi Calm Calm - N/A   Clear
10:53 PM 17.1 °F - -0.9 °F 45% 30.49 in 10.0 mi Calm Calm - N/A   Clear
11:53 PM 15.1 °F - -2.0 °F 47% 30.49 in 10.0 mi Calm Calm - N/A   Clear